OPS 5644

导读

OPS 5644是美国于1977年6月5日发射的军用侦察卫星,隶属于美国国家侦察局(NRO),归属海军海洋监视系统(NOSS)计划。作为第一代“白云”系列电子侦察卫星的组成部分,它主要承担对海上舰船的信号情报收集与监测任务,运行在近地轨道,服役期间为美国海军提供了关键的海洋目标态势感知能力,是冷战时期美军空间侦察体系的重要一环。

基本信息
目录编号:
10033
目录名称:
OPS 5644
国际标识:
1977-044A
轨道中心:
EARTH
卫星名称:
OPS 5644
卫星全名:
--
卫星状态:
在轨 (已飞行17998 天)
发射日期:
1977-06-05 UTC
国别 :
美国 (US)
星等 :
--
该卫星已列入 空间交会检测服务 Space Conjunction Data Service (SCDS) ,当前飞行风险评估等级: 无高风险
轨道信息
数据来源 国际轨道数据 AOE轨道数据
星历时间 2026-09-14T04:25:37+0800
9小时前
查看轨道信息
2026-09-13T00:00:00+0800
1天前
查看轨道信息
半长轴 7164.863km 7164.866km
偏心率 0.0037161 0.0037309
轨道倾角 99.109° 99.108°
近地点辐角 332.711° 336.053°
升交点赤经 309.615° 308.374°
平近点角 27.212° 43.365°
近地点 760.1km 759.997km
远地点 813.352km 813.461km
周期 100.594分钟 100.594分钟
每日圈数 14.314987 14.314979
详细信息
使用方式:
暂无
2D轨道图
3D轨道图
轨道高度分析图
轨道倾角分析图
轨道综合分析图
查看轨道综合分析图
交会数据列表
事件ID 空间交会对象 最接近时刻(TCA) 交会距离 交会风险概率(CRP) 交会风险指数(CRI) 操作
CDM_260914-200301-003302-263926
OPS 5644 (10033)
2026-09-14T
20:03:16+0000
2.814 km
极远距离
1.457591E-6 低风险 0.38
与全量物体交会距离演化趋势 订阅飞行安全评估服务
与全量物体交会风险概率演化趋势 订阅飞行安全评估服务